Location: Le Domaine
(47.0333°N, 76.5361°W)
Time: 11:26:47
(UTC-05:00)

Transit 2A Rocket - Pass Details

Date: 21 November 2019
Orbit: 594 x 909 km, 66.7° (Epoch: 14 December)

Event Time Altitude Azimuth Distance (km) Brightness Sun altitude
Exits shadow 04:52:34 23° 4° (N) 1,286 6.1 -24.4°
Maximum altitude 04:54:20 32° 46° (NE) 1,059 6.1 -24.1°
Drops below altitude 10° 04:58:21 10° 110° (ESE) 2,009 8.2 -23.4°
Sets 05:00:54 0° 121° (ESE) 2,955 9.1 -23.0°
